Location: Rancho Del Sol Observatory
(38.7214°N, 120.6350°W)
Time: 22:28:19
(UTC-08:00)

A-11 Canister half - Pass Details

Date: 30 January 2020
Orbit: 1517 x 1683 km, 47.2° (Epoch: 19 February)

Event Time Altitude Azimuth Distance (km) Brightness Sun altitude
Rises 22:17:03 0° 242° (WSW) 4,790 11.8 -56.6°
Enters shadow 22:19:48 - 243° (WSW) 3,903 11.3 -57.0°
Reaches altitude 10° 22:20:11 10° 243° (WSW) 3,784 - -57.1°
Maximum altitude 22:29:47 82° 331° (NNW) 1,563 - -58.6°
Drops below altitude 10° 22:39:08 10° 60° (ENE) 3,690 - -60.1°
Sets 22:42:09 0° 61° (ENE) 4,666 - -60.6°
